Showing default

LYNK TOWER 6, 59123

Orbit data source: Space-Track

LYNK TOWER 6, 59123 is a payload satellite owned by Lynk (US) in SSO that was launched on Mon, 04 Mar 2024 UTC via an FALCON 9 launch vehicle from the Air Force Western Test Range (AFWTR). Payload-class satellites include a variety of spacecraft equipped with specific instruments for various scientific and technological missions. These include communications satellites like Starlink; space stations such as the ISS; scientific satellites like the Hubble; Earth observation satellites from companies like Planet Labs, Umbra, and HawkEye 360; GPS; miniature CubeSats for education and research; and military/defense satellites.

Loading next visibility...
Identifier
59123, 2024-043AB
Orbit
SSO
Country
Flag of USUS
Related business
Manufacturer
Lynk
Mission
Operational Commercial Communications
Bus & Motor
LYNK SHANNON, Unknown motor
Mass
~85 kg wet, ~85 kg dry
Launch date (UTC)
2024-03-04 (2 years ago)
Launch vehicle
FALCON 9
Launch site
Air Force Western Test Range (AFWTR)
Object type
Payload
Rocket body
Debris
Shape & HBR
Box, 1.0 m
Radar Cross Section
0.650 m², Medium (>0.1 m² and < 1m²)

Expand to show TLE details & history
Last TLE update: 2 days ago

TLE from 2 days ago
0 LYNK TOWER 6
1 59123U 24043AB  26171.34549885  .00004763  00000-0  16062-3 0  9994
2 59123  97.5606 308.4019 0009104 226.5839 133.4645 15.31191167127516
Epoch: 2026-06-20T08:17Z
TLE epoch observation values (Epoch: 2026-06-20T08:17:31.100Z)
Latitude
-0°
Longitude
-84.53913°
Altitude
479.652 km
Speed
7.623 km/s
True Right ascension
20h 33m 36s
True Declination
0° 00' 00"
Sunlit
Object was in full shadow at epoch
Visualization orbit readout
Latitude
Unknown
Longitude
Unknown
Altitude
Unknown
Speed
Unknown
Apparent Right ascension
Unknown
Apparent Declination
Unknown
Sunlit
N/A
Visualization observer readout
Local Sidereal Time
21:51:23
Azimuth
Unknown
Elevation
Unknown
Doppler factor
Unknown
Orbital elements
Apogee altitude
475.449 km
Perigee altitude
462.981 km
Semi-major axis
6,847.352 km
Eccentricity
0.00091
Inclination
97.5606°
RAAN
308.4019°
Arg. of periapsis
226.5839°
True anomaly
133.54016°
Mean anomaly
133.4645°
Eccentric anomaly
133.50234°
Mean motion
3.83053 °/min
Orbital period
93.98 mins
BSTAR
0.00016062
Loading maneuver chart data...
Computing Atmospheric mass density...

Documentation

Showing up to 5 results
|